User: anonymous   Login
Location: Unspecified
(0.0000°N, 0.0000°E)
Time: 07:10:13
(UTC+00:00)
Language:

USA 255 - Orbit

View from above orbital plane
View from above orbital plane
View from above satellite
View from above satellite

Ground track
Ground track

The orbit data is extracted from the following two-line orbital elements,

1 40101U 14043C   18172.48397636 0.00000000  00000-0  00000-0 0    06
2 40101   2.5614  74.8313 0014410 243.3518 116.5126  0.98722994    00
Epoch (UTC): 21 June 2018 11:36:55
Eccentricity: 0.0014410
inclination: 2.5614°
perigee height: 36164 km
apogee height: 36287 km
right ascension of ascending node: 74.8313°
argument of perigee: 243.3518°
revolutions per day: 0.98722994
mean anomaly at epoch: 116.5126°
orbit number at epoch: 0

The dashed part of the orbit path shows where the satellite is in the earth's shadow,  

DLR